Regional Weather Roundup
Issued by NWS Bismarck, ND

Home | Current Version | Previous Version | Text Only | Print | Product List | Glossary On
Versions: 1 2 3 4 5 6 7 8 9 10 11 12 13 14 15 16 17 18 19 20 21 22 23 24 25 26 27 28 29 30 31 32 33 34 35 36 37 38 39 40 41 42 43 44 45 46 47 48 49 50
000
ASUS43 KBIS 280210
RWRBIS

NWR BROADCAST TEXT
NATIONAL WEATHER SERVICE BISMARCK ND
800 PM CST THU NOV 27 2014

NOTE: "FAIR" INDICATES FEW OR NO CLOUDS BELOW 12,000 FEET WITH NO
SIGNIFICANT WEATHER AND/OR OBSTRUCTIONS TO VISIBILITY.


CITY           SKY/WX    TMP DP  RH WIND       PRES   REMARKS
WILLISTON      PTCLDY    17  12  80 E8        29.85R WCI   7
MINOT          CLOUDY    12   8  84 SE14      29.94F WCI  -3
MINOT AFB      CLOUDY    12   9  85 SE15      29.94F WCI  -4
BISMARCK       CLOUDY    12   7  80 SE13      29.96F WCI  -3
DICKINSON      CLEAR     22  19  89 S9        29.76F WCI  12
GARRISON         N/A     12   9  87 SE16      29.91F WCI  -5
HETTINGER ARPT CLEAR     23  19  85 SE8       29.83F WCI  14
JAMESTOWN      LGT SNOW   6   2  83 E14       30.06S VSB 1   WCI -11
BEACH          FAIR      36  32  87 SW13      29.76F
CARRINGTON     LGT SNOW   5   3  92 SE16      30.06S WCI -14
CROSBY         CLOUDY    16  10  79 SE14      29.89S WCI   1
HARVEY         LGT SNOW   5   1  85 SE17      30.01F WCI -14
HAZEN          CLOUDY    12   7  79 E7        29.92F WCI   2
LINTON         CLOUDY    12   9  85 SE16G22   29.95F WCI  -4
MANDAN         CLOUDY    10   9  92 SE12      29.93F WCI  -4
OAKES          LGT SNOW   7   5  92 E15       30.08F WCI -11
RUGBY          MOCLDY     7   3  85 SE15G24   30.01F WCI -11
STANLEY        CLOUDY    12  10  92 SE13      29.87S WCI  -3
TIOGA          CLOUDY    12  12 100 SE15      29.89R WCI  -4
$$

CITY           SKY/WX    TMP DP  RH WIND       PRES   REMARKS
GRAND FORKS    LGT SNOW   6   1  80 SE9       30.21F WCI  -8
GRAND FORKS AF LGT SNOW   5   1  85 S8        30.19F WCI  -8
DEVILS LAKE    CLOUDY     7  -6  56 SE14      30.06F WCI -10
FARGO          LGT SNOW   9  -1  64 SE14      30.21F WCI  -7
CANDO          LGT SNOW   7   3  85 SE16      30.06F WCI -11
CAVALIER       CLOUDY     5   0  78 S12G18    30.18F HAZE    WCI -11
GRAFTON        LGT SNOW   5   0  78 S15       30.20F WCI -13
GWINNER        CLOUDY     9   3  78 SE15      30.13F WCI  -8
LANGDON        CLOUDY     7   1  78 S14       30.06F WCI -10
ROLLA          CLOUDY     5   1  85 S9        30.03F WCI  -9
WALHALLA         N/A      7   1  78 S10       30.15F WCI  -8
$$

CITY           SKY/WX    TMP DP  RH WIND       PRES   REMARKS
ABERDEEN       CLOUDY    16   8  71 S16       30.06F WCI   1
MOBRIDGE       CLOUDY    19  13  77 S17       29.91F WCI   4
BUFFALO          N/A     28  23  81 S6        29.75F
RAPID CITY     CLEAR     27  23  85 CALM      29.87S
GLASGOW        CLOUDY    25  22  88 E14       29.74F FOG     WCI  13
SIDNEY         CLEAR     23  19  86 N8        29.81F WCI  14
WOLF POINT     MOCLDY    23  19  85 E10       29.80S WCI  12
GLENDIVE       CLEAR     30  27  86 S7        29.76F
MILES CITY     CLOUDY    40  34  79 S6        29.77F
BAKER          MOCLDY    37  30  75 W8        29.79S
$$

CITY           SKY/WX    TMP DP  RH WIND       PRES   REMARKS
BILLINGS       MOCLDY    46  29  51 SW17G25   29.80F
GREAT FALLS    CLEAR     50  36  58 SW14      29.71F
REGINA         FLURRIES  18  14  86 E15       29.92R WCI   3
ESTEVAN        FLURRIES  10   7  85 E16       29.91F WCI  -7
$$



USA.gov is the U.S. government's official web portal to all federal, state and local government web resources and services.